{"data":{"norad_id":67988,"epoch":"2026-09-19T20:16:37.762464Z","epoch_age_seconds":116260,"freshness":"FRESH","line1":"1 67988U 26039C   26262.84488151  .00010743  00000+0  39925-3 0  9990","line2":"2 67988  42.9961  32.7552 0000078  30.5123 329.5733 15.27586991 31395","mean_motion":15.27586991,"eccentricity":7.8e-6,"inclination_deg":42.9961,"raan_deg":32.7552,"arg_perigee_deg":30.5123,"mean_anomaly_deg":329.5733,"bstar":0.00039925,"rev_number":3139,"period_min":94.266317301991,"perigee_km":482.97464546222,"apogee_km":483.08167963876,"semimajor_km":6861.1651625505,"source":"CELESTRAK","updated_at":"2026-09-20T09:00:43.734960Z"}}